User: anonymous   Login
Location: Capvern
(43.1036°N, 0.3160°E)
Time: 03:12:24
(UTC+00:00)
Language:

H-2A R/B - Orbit

View from above orbital plane
View from above orbital plane
View from above satellite
View from above satellite

Ground track
Ground track

The orbit data is extracted from the following two-line orbital elements,

1 27601U 02056E   22019.82218174  .00000048  00000-0  32246-4 0  9999
2 27601  98.1800  34.9054 0071772 345.6361 188.1233 14.32029382997893
Epoch (UTC): 19 January 2022 19:43:56
Eccentricity: 0.0071772
inclination: 98.1800°
perigee height: 733 km
apogee height: 836 km
right ascension of ascending node: 34.9054°
argument of perigee: 345.6361°
revolutions per day: 14.32029382
mean anomaly at epoch: 188.1233°
orbit number at epoch: 99789

The dashed part of the orbit path shows where the satellite is in the earth's shadow,  

DLR